RH
82 75 62 51 50 47 43 48 98 83 83 78 96 91 92 96 87 84 85 69 81 50 69 62 39 35 30 26 22 20 18 17 15
98 94 66 59 59 56 46 44 42 56 54 51 92 96 96 98 89 81 82 89 81 67 54 88 36 26 25 24 23 22 21 20 18
98 99 80 80 59 72 82 88 72 64 56 45 86 99 90 93 93 90 80 58 55 66 69 94 92 42 30 27 26 24 23 23 22
82 85 72 62 53 68 96 96 96 97 92 88 63 53 75 95 91 89 90 61 45 51 66 73 91 94 89 59 44 34 28 26 24
38 44 45 42 41 43 54 70 91 95 98 95 72 48 39 50 86 85 84 30 35 44 50 60 73 95 95 86 69 40 32 30 27
53 47 42 38 36 37 42 48 54 60 66 59 50 45 44 71 68 67 57 19 25 31 40 45 82 88 87 98 85 73 54 32 30
45 40 40 42 42 43 46 49 52 55 83 90 72 64 84 77 65 49 25 16 17 20 23 28 36 61 87 80 89 93 83 86 46
49 46 46 47 49 52 57 58 64 75 80 87 89 90 89 85 78 64 54 47 30 17 18 22 24 26 36 64 85 85 87 91 90
49 50 53 54 57 61 63 69 81 82 83 89 88 89 89 87 85 78 63 62 62 56 43 23 22 26 28 43 70 84 83 88 84
55 54 56 59 65 72 79 83 91 92 94 94 94 93 91 90 91 88 76 66 67 67 64 62 55 41 27 28 30 40 64 77 80
66 66 67 70 74 77 79 81 83 86 89 92 93 91 93 89 86 86 86 80 72 75 75 71 68 65 63 56 41 31 35 42 53
69 69 70 73 76 74 78 84 91 84 79 81 84 91 90 90 87 88 87 91 83 73 74 76 77 78 77 75 70 66 58 45 38
68 69 73 78 76 80 87 97 97 96 100 99 98 98 96 90 84 85 89 90 90 82 73 71 71 72 74 78 88 96 92 79 71
72 75 77 81 87 92 92 85 92 94 92 92 91 91 91 91 91 92 92 93 92 90 80 73 74 72 71 72 75 85 89 93 94
82 82 79 72 67 66 59 62 74 80 80 79 77 79 80 78 83 85 85 85 93 96 99 96 89 77 77 77 82 80 78 79 84
57 49 44 40 38 36 33 35 35 51 59 56 58 58 64 77 62 72 87 74 75 80 83 87 93 96 98 92 85 82 86 87 85
33 29 28 29 31 33 34 35 35 41 55 61 62 49 53 47 63 51 51 63 59 69 78 86 89 93 94 97 99 94 88 87 87
34 37 38 38 37 35 32 34 48 64 60 61 63 63 56 66 56 55 54 55 65 62 64 72 72 73 78 93 92 93 86 72 71
43 42 40 35 29 23 16 14 20 47 49 50 51 63 66 67 65 50 58 55 65 61 62 62 68 70 70 78 91 90 84 76 76
46 40 33 24 15 8 4 5 11 25 38 49 56 62 65 63 59 66 47 48 49 52 54 60 68 67 69 76 82 90 94 93 98
Wind_Speed
6 6 5 5 4 5 4 4 6 5 9 12 9 9 12 15 10 11 11 11 13 11 10 12 12 13 12 12 12 12 11 10 10
7 9 6 7 6 5 3 4 6 9 10 10 10 12 14 13 12 13 13 11 14 14 12 12 13 12 12 12 12 11 11 11 11
6 8 10 7 8 5 7 7 7 8 9 10 11 13 14 12 12 15 15 17 16 16 14 12 18 15 14 14 14 13 13 12 12
6 7 10 10 9 5 6 8 10 12 13 12 12 12 14 15 14 15 16 18 17 18 19 16 16 19 17 17 17 16 16 15 15
6 8 10 10 10 8 8 7 10 12 14 14 13 14 15 16 15 17 17 19 20 20 20 21 19 19 22 21 20 20 19 19 18
7 7 8 9 9 9 8 9 9 11 13 12 13 14 14 13 15 17 20 20 22 23 24 24 23 23 22 26 25 24 23 22 22
8 8 8 9 9 10 10 11 12 13 12 12 15 14 13 14 16 17 20 20 23 25 27 28 28 27 27 28 29 29 27 27 26
8 9 10 10 11 11 12 13 14 14 14 15 15 16 16 16 18 20 21 20 22 24 27 29 31 32 33 32 31 32 32 31 30
9 10 11 11 12 13 14 14 14 17 18 18 19 19 20 20 21 24 28 25 25 26 27 29 31 33 35 35 35 34 35 37 36
10 11 12 12 14 14 15 16 17 18 18 19 21 23 25 25 26 28 32 32 29 30 31 31 32 33 35 37 39 39 38 39 40
10 12 13 14 16 17 19 21 22 24 25 24 25 27 26 28 31 32 33 37 35 33 34 35 36 38 38 38 39 41 41 42 43
12 13 15 17 18 21 22 22 22 26 28 30 29 25 26 28 30 30 31 30 35 36 34 35 37 39 41 41 42 43 44 44 45
15 16 16 17 21 22 22 20 22 24 21 22 23 24 25 28 30 30 29 29 31 35 38 35 32 34 37 40 42 44 46 48 49
15 15 17 18 17 16 17 20 20 21 20 21 22 23 24 25 26 27 27 27 29 31 32 35 36 35 35 37 39 42 46 49 51
7 8 11 13 14 15 17 18 17 18 19 22 24 24 24 25 24 24 23 23 25 25 27 29 33 37 36 35 36 37 39 41 46
9 10 12 14 16 19 20 20 22 19 19 23 25 24 25 18 24 22 21 27 30 30 31 32 32 31 32 36 36 35 37 37 39
12 13 15 17 18 20 22 23 25 22 20 20 26 20 27 17 20 30 30 27 30 29 29 29 31 32 33 35 37 36 35 34 35
13 15 17 19 20 21 22 21 20 19 19 17 16 18 17 35 28 28 27 22 24 29 31 29 32 34 36 35 37 39 43 41 40
17 20 21 22 22 22 23 21 20 17 18 19 17 19 24 29 32 21 30 25 24 31 34 31 32 33 34 34 34 36 39 42 41
22 23 24 24 24 23 23 22 21 20 18 18 20 21 22 24 29 39 28 35 29 31 33 31 32 34 34 34 29 30 33 37 36
Wind_Direction
285 293 326 327 312 303 287 262 284 290 223 235 253 278 284 301 278 268 273 267 240 247 245 252 248 254 258 264 269 270 266 261 254
311 292 317 333 327 315 302 305 287 271 267 276 256 253 269 280 271 267 264 260 250 249 255 263 260 258 259 264 266 264 263 260 255
272 290 315 329 332 328 332 332 321 303 292 282 274 275 278 271 273 270 260 255 254 251 250 244 275 265 259 261 262 262 260 257 253
262 292 310 314 317 319 297 297 302 304 304 301 291 282 278 275 269 266 266 263 254 254 252 248 249 269 263 262 260 259 259 256 253
294 296 302 304 308 312 306 282 269 285 293 289 298 299 290 283 269 266 262 264 260 258 257 256 248 250 267 261 259 258 257 256 255
284 294 306 319 321 323 322 316 310 301 304 306 307 305 296 273 269 268 269 278 268 263 260 260 257 252 247 264 266 256 256 254 254
290 304 315 318 323 325 324 323 319 315 303 291 307 307 287 283 283 283 290 287 278 272 267 264 261 257 254 249 257 261 255 254 253
309 316 323 324 324 323 321 319 314 302 296 289 286 285 286 284 284 286 290 288 281 276 272 269 266 263 261 258 253 255 260 255 252
315 320 322 323 317 314 313 307 301 300 298 291 288 286 283 285 286 287 291 288 285 281 277 273 269 267 265 262 259 255 254 259 262
308 313 314 315 311 310 308 306 302 300 296 293 291 292 290 289 287 287 288 286 282 279 277 275 273 270 267 264 263 260 254 253 258
305 311 315 314 311 309 309 308 306 306 304 297 294 293 287 288 290 289 287 286 283 279 276 275 273 272 270 268 265 263 261 257 252
302 306 307 305 303 304 303 302 299 300 301 298 294 288 285 283 284 284 285 284 289 289 285 281 278 276 275 272 270 268 266 263 260
295 298 301 300 302 304 305 305 304 304 302 301 298 294 291 288 286 285 283 281 283 286 289 285 280 278 277 274 269 265 264 264 263
297 298 300 305 310 313 313 314 312 310 309 303 298 296 293 291 291 288 286 285 284 285 285 286 284 280 277 275 273 268 263 262 263
326 330 330 330 330 328 326 324 321 316 312 308 304 301 299 295 291 292 293 294 293 292 287 290 288 289 284 281 279 276 273 271 267
2 356 351 344 338 334 330 326 325 324 321 317 311 306 304 303 297 295 291 294 291 288 289 288 286 286 285 288 284 276 279 276 273
3 355 348 341 335 329 328 327 326 323 323 321 316 313 307 307 290 291 297 293 290 289 290 291 290 285 281 279 283 285 285 281 280
360 351 344 340 338 336 335 333 334 326 326 323 318 321 309 313 311 300 303 300 293 290 293 289 288 289 288 288 286 283 287 286 284
352 347 344 342 340 338 338 335 332 329 324 324 315 305 303 310 312 303 300 301 297 297 298 295 289 288 288 285 283 287 288 286 284
349 347 345 344 342 340 339 338 336 334 325 321 318 314 312 309 306 307 305 301 300 296 295 292 290 291 289 290 292 287 288 284 284